Location: Cruquius
(52.3348°N, 4.6319°E)
Time: 23:57:56
(UTC+00:00)

NOSS 3-3 (C) - Pass Details

Date: 28 September 2021
Orbit: 801 x 1411 km, 63.4° (Epoch: 05 October)

Event Time Altitude Azimuth Distance (km) Brightness Sun altitude
Rises 21:26:52 0° 308° (NW) 4,067 8.2 -33.7°
Reaches altitude 10° 21:30:43 10° 288° (WNW) 3,213 7.3 -34.1°
Maximum altitude 21:35:06 16° 254° (WSW) 2,865 6.6 -34.5°
Enters shadow 21:38:26 13° 228° (SW) 3,177 6.6 -34.8°
